Location: ??????????
(31.2156°N, 29.9553°E)
Time: 09:02:21
(UTC+00:00)

Cosmos 1959 Rocket - Pass Details

Date: 03 March 2021
Orbit: 948 x 996 km, 83.0° (Epoch: 15 April)

Event Time Altitude Azimuth Distance (km) Brightness Sun altitude
Rises 17:20:52 0° 172° (S) 3,611 7.4 -18.1°
Reaches altitude 10° 17:23:23 10° 169° (SSE) 2,665 6.6 -18.6°
Maximum altitude 17:29:19 57° 92° (E) 1,111 4.4 -19.9°
Drops below altitude 10° 17:35:16 10° 15° (NNE) 2,675 6.7 -21.2°
Sets 17:37:48 0° 12° (NNE) 3,626 7.4 -21.7°
